GLOBALSTAR M069 1 31573U 07020C 26120.17397594 -.00000077 00000+0 14511-3 0 9993 2 31573 52.0057 28.0201 0002446 52.5052 98.9163 12.23470037872921 GLOBALSTAR M072 1 31574U 07020D 26120.58558248 -.00000076 00000+0 10487-3 0 9991 2 31574 51.9928 226.9748 0001448 195.1714 267.9268 11.91657422869303 GLOBALSTAR M066 1 32265U 07048C 26120.65746985 -.00000077 00000+0 14742-3 0 9993 2 32265 51.9576 194.3578 0004399 299.4658 226.9890 12.30387757854374 GLOBALSTAR M079 1 37188U 10054A 26120.61524653 -.00000107 00000+0 -19622-4 0 9993 2 37188 52.0041 253.4861 0000505 142.4127 230.8896 12.62265170716542 GLOBALSTAR M074 1 37189U 10054B 26120.64167041 -.00000112 00000+0 -44798-4 0 9999 2 37189 52.0017 252.6785 0000600 108.7025 264.5299 12.62267615717155 GLOBALSTAR M076 1 37190U 10054C 26120.52341265 -.00000108 00000+0 -22452-4 0 9998 2 37190 52.0030 253.2361 0000369 105.4117 331.0908 12.62272413716852 GLOBALSTAR M077 1 37191U 10054D 26120.51545050 -.00000083 00000+0 -10081-3 0 9992 2 37191 51.9972 300.2947 0003307 89.1522 303.9632 11.67547448715579 GLOBALSTAR M075 1 37192U 10054E 26120.00484484 -.00000084 00000+0 10935-3 0 9998 2 37192 51.9953 296.8977 0000810 104.4125 73.7027 12.62266323715855 GLOBALSTAR M073 1 37193U 10054F 26120.63168064 -.00000082 00000+0 12015-3 0 9990 2 37193 52.0056 209.0523 0000276 163.1938 343.7423 12.62266576717925 GLOBALSTAR M083 1 37739U 11033A 26120.56935295 -.00000080 00000+0 13310-3 0 9991 2 37739 51.9834 157.5351 0000153 215.2758 309.8886 12.62262826686938 GLOBALSTAR M088 1 37740U 11033B 26120.62396050 -.00000115 00000+0 -64576-4 0 9991 2 37740 52.0222 63.6798 0000538 57.7531 113.6010 12.62263173682482 GLOBALSTAR M091 1 37741U 11033C 26120.47833848 -.00000096 00000+0 40718-4 0 9995 2 37741 52.0023 27.1587 0000593 84.6325 86.1217 12.62262902683252 GLOBALSTAR M085 1 37742U 11033D 26120.59160263 -.00000084 00000+0 11131-3 0 9996 2 37742 52.0144 338.0662 0000714 104.6014 281.2722 12.62262966683785 GLOBALSTAR M081 1 37743U 11033E 26120.61634742 -.00000076 00000+0 15743-3 0 9992 2 37743 51.9978 340.4820 0000683 85.0025 292.6764 12.62263834683935 GLOBALSTAR M089 1 37744U 11033F 26120.50127463 -.00000094 00000+0 52013-4 0 9990 2 37744 51.9937 295.0007 0000828 82.3544 312.6279 12.62266101684766 GLOBALSTAR M084 1 38040U 11080A 26120.43047681 -.00000069 00000+0 19482-3 0 9991 2 38040 51.9987 162.6713 0000234 49.3193 323.7096 12.62266771662734 GLOBALSTAR M080 1 38041U 11080B 26120.59376985 -.00000062 00000+0 23217-3 0 9995 2 38041 52.0041 163.8765 0000636 148.4152 16.7789 12.62268708662875 GLOBALSTAR M082 1 38042U 11080C 26120.52748642 -.00000090 00000+0 74267-4 0 9995 2 38042 52.0051 119.5717 0000292 144.1025 9.8410 12.62269448663576 GLOBALSTAR M092 1 38043U 11080D 26120.66196065 -.00000080 00000+0 13344-3 0 9994 2 38043 52.0079 209.5586 0000435 125.5161 39.1384 12.62266800662040 GLOBALSTAR M090 1 38044U 11080E 26120.47914117 -.00000093 00000+0 60593-4 0 9993 2 38044 52.0104 113.6589 0000106 50.1536 123.1025 12.62268421663680 GLOBALSTAR M086 1 38045U 11080F 26120.33553170 -.00000085 00000+0 10501-3 0 9991 2 38045 51.9875 114.1041 0000919 317.5199 180.5699 12.62285625663612 GLOBALSTAR M097 1 39072U 13005A 26120.41429689 -.00000108 00000+0 -23232-4 0 9990 2 39072 52.0072 28.7557 0000487 77.6158 282.4763 12.62260062610877 GLOBALSTAR M093 1 39073U 13005B 26120.46721620 -.00000091 00000+0 68772-4 0 9994 2 39073 52.0129 21.9258 0000366 81.8481 278.2427 12.62264728610835 GLOBALSTAR M094 1 39074U 13005C 26120.62562985 -.00000100 00000+0 22871-4 0 9991 2 39074 51.9962 295.6108 0000630 119.9608 240.1321 12.62267963612467 GLOBALSTAR M096 1 39075U 13005D 26120.63895826 -.00000077 00000+0 15155-3 0 9995 2 39075 52.0096 344.3335 0000671 98.6871 261.4072 12.62264549611388 GLOBALSTAR M078 1 39076U 13005E 26120.21594127 -.00000121 00000+0 -95683-4 0 9996 2 39076 51.9876 69.6910 0001007 132.1395 227.9557 12.62265989609952 GLOBALSTAR M095 1 39077U 13005F 26120.55949239 -.00000119 00000+0 -86077-4 0 9996 2 39077 52.0087 66.1828 0000338 121.5526 238.5374 12.62267355609856 GLOBALSTAR M087 1 52888U 22064A 26120.49375708 -.00000084 00000+0 10772-3 0 9991 2 52888 51.9991 207.6541 0000503 164.9048 195.1834 12.62268443185117